STARLINK-4635 (53966 NORAD) Tracking and Keplerian Element Data

This shows tracking and keplerian element data for the satellite.

Feedback or suggestion? Click here.




ElementValue
Catalog53966
NameSTARLINK-4635
Epoch Orbit130
Epoch Day324.91667824
Epoch Year2022
RAAN232.633
Inclination53.2159
Eccentricity0.000194
Argument of Perigee52.733
Mean Anonmoly221.7145
Mean Motion15.08863691
Decay Rate-0.00063793
L11 53966U 22125C 22324.91667824 -.00063793 00000+0 -40232-2 0 9999
L22 53966 53.2159 232.6330 0001940 52.7330 221.7145 15.08863691 1302



Live tracking and technical data element details for STARLINK-4635 (NORAD 53966). STARLINK-4635 can be tracked NOW for your location showing map with azimuth and elevation plus other details from your city location.







IsCatalogInMostPopularTable: catalog: 53966, numindb: 3
Update: records affected: 1



GetName: 53966 STARLINK-4635

Hit Count: updated at: Mon, 28 Nov 2022 20:41:11 GMT